K7NDG Weather Reports


time (UTC)temp
F
wind
direction
speed
knots
gust
knots
rain 1hr
in
rain 24hr
in
rain mn
in
humidity
%
barometer
mb
20260506233140 57 251 1.7 4.3 0.00 0.00 0.00 77 1022.1
20260506232636 57 354 0.0 4.3 0.00 0.00 0.00 77 1022.3
20260506232131 57 83 0.0 4.3 0.00 0.00 0.00 77 1022.4
20260506231629 57 239 2.6 5.2 0.00 0.00 0.00 77 1022.4
20260506231127 57 263 1.7 2.6 0.00 0.00 0.00 76 1022.4
20260506230624 57 277 0.0 3.5 0.00 0.00 0.00 76 1022.1
20260506230121 57 290 0.0 3.5 0.00 0.00 0.00 75 1022.2
20260506225617 58 282 0.0 2.6 0.00 0.00 0.00 76 1022.1
20260506225114 58 288 2.6 5.2 0.00 0.00 0.00 76 1022.2
20260506224610 57 242 1.7 5.2 0.00 0.00 0.00 75 1022.4
20260506224107 58 288 0.9 5.2 0.00 0.00 0.00 75 1022.3
20260506223603 58 297 0.9 3.5 0.00 0.00 0.00 74 1022.5
20260506223059 58 282 0.9 7.8 0.00 0.00 0.00 74 1022.2
20260506222556 58 299 0.0 2.6 0.00 0.00 0.00 75 1022.3
20260506222052 58 269 2.6 4.3 0.00 0.00 0.00 73 1022.3
20260506221550 59 273 0.0 6.1 0.00 0.00 0.00 73 1022.2
20260506221048 59 269 0.9 3.5 0.00 0.00 0.00 72 1022.3
20260506220544 59 288 0.0 4.3 0.00 0.00 0.00 72 1022.3
20260506220040 59 216 3.5 6.1 0.00 0.00 0.00 73 1022.2
20260506215537 59 228 1.7 2.6 0.00 0.00 0.00 73 1022.2
20260506215032 59 282 0.0 7.0 0.00 0.00 0.00 73 1022.3
20260506214529 58 245 3.5 5.2 0.00 0.00 0.00 74 1022.4
20260506214027 58 288 2.6 6.1 0.00 0.00 0.00 74 1022.3
20260506213525 58 240 5.2 7.8 0.00 0.00 0.00 74 1022.2
20260506213022 58 265 2.6 5.2 0.00 0.00 0.00 76 1022.4
20260506212518 58 255 2.6 3.5 0.00 0.00 0.00 76 1022.4
20260506212013 58 282 2.6 5.2 0.00 0.00 0.00 78 1022.5
20260506211509 57 227 0.0 2.6 0.00 0.00 0.00 80 1022.3
20260506211007 56 228 0.0 5.2 0.00 0.00 0.00 81 1022.4
20260506210503 56 251 2.6 7.8 0.00 0.00 0.00 81 1022.4
20260506210000 56 256 4.3 4.3 0.00 0.00 0.00 81 1022.4
20260506205456 56 226 0.0 3.5 0.00 0.00 0.00 80 1022.6
20260506204952 56 269 0.9 5.2 0.00 0.00 0.00 80 1022.5
20260506204450 57 282 0.0 5.2 0.00 0.00 0.00 82 1022.3
20260506203947 56 288 0.0 4.3 0.00 0.00 0.00 82 1022.5
20260506203444 55 316 1.7 4.3 0.00 0.00 0.00 81 1022.4
20260506202941 55 298 1.7 4.3 0.00 0.00 0.00 81 1022.5
20260506202438 55 16 1.7 6.1 0.00 0.00 0.00 82 1022.3
20260506201935 55 282 0.9 4.3 0.00 0.00 0.00 82 1022.4
20260506201432 55 255 1.7 4.3 0.00 0.00 0.00 82 1021.9
20260506200929 55 270 0.9 3.5 0.00 0.00 0.00 83 1022.3
20260506200425 55 306 0.0 5.2 0.00 0.00 0.00 83 1022.3
20260506195922 55 263 0.9 3.5 0.00 0.00 0.00 83 1022.1
20260506195419 55 288 0.0 3.5 0.00 0.00 0.00 84 1022.2
20260506194915 55 249 2.6 5.2 0.00 0.00 0.00 83 1022.1
20260506194413 55 312 0.9 2.6 0.00 0.00 0.00 82 1022.1
20260506193909 55 289 0.0 1.7 0.00 0.00 0.00 81 1022.3
20260506193407 55 247 3.5 4.3 0.00 0.00 0.00 81 1022.1
20260506192903 55 215 0.9 5.2 0.00 0.00 0.00 80 1022.3
20260506192400 55 237 3.5 5.2 0.00 0.00 0.00 79 1021.8
20260506191857 55 255 1.7 4.3 0.00 0.00 0.00 80 1022.0
20260506191353 55 275 3.5 4.3 0.00 0.00 0.00 80 1022.1
20260506190850 55 272 2.6 4.3 0.00 0.00 0.00 79 1022.0
20260506190346 55 282 0.9 3.5 0.00 0.00 0.00 80 1022.0
20260506185843 55 309 0.0 1.7 0.00 0.00 0.00 79 1022.1
20260506185340 55 255 0.9 2.6 0.00 0.00 0.00 79 1022.0
20260506184837 55 289 0.9 3.5 0.00 0.00 0.00 78 1022.1
20260506184334 55 309 1.7 1.7 0.00 0.00 0.00 78 1021.8
20260506183832 55 282 1.7 5.2 0.00 0.00 0.00 78 1021.6
20260506183327 55 282 0.0 3.5 0.00 0.00 0.00 78 1021.9
20260506182825 55 294 0.9 3.5 0.00 0.00 0.00 78 1021.8
20260506182321 55 227 0.9 2.6 0.00 0.00 0.00 79 1021.8
20260506181819 55 282 0.0 2.6 0.00 0.00 0.00 78 1021.9
20260506181317 55 258 0.0 3.5 0.00 0.00 0.00 78 1021.9
20260506180814 55 273 1.7 3.5 0.00 0.00 0.00 78 1021.9
20260506180310 55 240 1.7 5.2 0.00 0.00 0.00 79 1021.8
20260506175806 55 306 0.0 2.6 0.00 0.00 0.00 78 1021.8
20260506175306 54 277 1.7 2.6 0.00 0.00 0.00 79 1021.6
20260506174800 54 266 2.6 2.6 0.00 0.00 0.00 79 1021.8
20260506174257 54 253 0.0 3.5 0.00 0.00 0.00 79 1021.8
20260506173755 54 277 1.7 5.2 0.00 0.00 0.00 79 1021.8
20260506173252 54 320 1.7 5.2 0.00 0.00 0.00 79 1021.5
20260506172748 54 267 0.0 4.3 0.00 0.00 0.00 78 1021.6
20260506172245 55 268 2.6 3.5 0.00 0.00 0.00 78 1021.6
20260506171743 55 272 1.7 2.6 0.00 0.00 0.00 78 1021.5
20260506171240 55 292 0.0 4.3 0.00 0.00 0.00 78 1021.7
20260506170738 55 258 2.6 3.5 0.00 0.00 0.00 78 1021.6
20260506170234 54 282 1.7 3.5 0.00 0.00 0.00 79 1021.4
20260506165732 54 267 0.0 1.7 0.00 0.00 0.00 79 1021.5
20260506165229 54 271 2.6 2.6 0.00 0.00 0.00 79 1021.7
20260506164726 54 304 0.0 2.6 0.00 0.00 0.00 78 1021.6
20260506164223 54 297 0.0 3.5 0.00 0.00 0.00 79 1021.3
20260506163720 54 5 0.0 3.5 0.00 0.00 0.00 78 1021.4
20260506163215 54 249 0.9 2.6 0.00 0.00 0.00 78 1021.2
20260506162711 54 278 1.7 3.5 0.00 0.00 0.00 78 1021.3
20260506162209 54 282 0.0 2.6 0.00 0.00 0.00 78 1021.4
20260506161706 54 343 0.0 3.5 0.00 0.00 0.00 78 1021.2
20260506161203 54 298 1.7 3.5 0.00 0.00 0.00 79 1021.2
20260506160701 54 267 1.7 4.3 0.00 0.00 0.00 79 1021.4
20260506160157 54 271 2.6 5.2 0.00 0.00 0.00 79 1021.4
20260506155655 54 251 1.7 2.6 0.00 0.00 0.00 79 1021.3
20260506155152 54 270 1.7 1.7 0.00 0.00 0.00 80 1021.2
20260506153254 54 265 3.5 4.3 0.00 0.00 0.00 80 1020.9
20260506152751 54 282 0.9 1.7 0.00 0.00 0.00 80 1021.0
20260506152248 53 297 0.0 2.6 0.00 0.00 0.00 80 1021.1
20260506151747 53 253 1.7 2.6 0.00 0.00 0.00 80 1021.0
20260506151243 53 346 0.0 2.6 0.00 0.00 0.00 80 1020.8
20260506150740 53 282 1.7 1.7 0.00 0.00 0.00 81 1020.9
20260506150237 53 337 0.0 2.6 0.00 0.00 0.00 81 1020.8
20260506145734 53 318 0.9 4.3 0.00 0.00 0.00 81 1020.7
20260506145230 53 287 1.7 2.6 0.00 0.00 0.00 81 1020.6
20260506144728 53 313 0.0 2.6 0.00 0.00 0.00 81 1020.5
20260506144225 53 287 0.0 1.7 0.00 0.00 0.00 82 1020.9
20260506143722 53 293 2.6 2.6 0.00 0.00 0.00 82 1020.7
20260506143220 53 289 0.9 2.6 0.00 0.00 0.00 82 1020.6
20260506142718 53 299 0.9 1.7 0.00 0.00 0.00 83 1020.6
20260506142216 53 306 0.0 1.7 0.00 0.00 0.00 83 1020.7
20260506141714 53 17 0.9 2.6 0.00 0.00 0.00 83 1020.6
20260506141212 53 301 1.7 3.5 0.00 0.00 0.00 84 1020.7
20260506140709 53 309 0.0 2.6 0.00 0.00 0.00 85 1020.3
20260506140206 53 306 0.0 1.7 0.00 0.00 0.00 85 1020.1
20260506135703 53 318 0.0 1.7 0.00 0.00 0.00 85 1020.2
20260506135159 53 290 1.7 1.7 0.00 0.00 0.00 86 1020.2
20260506134656 53 294 0.9 1.7 0.00 0.00 0.00 86 1020.3
20260506134152 53 282 1.7 2.6 0.00 0.00 0.00 86 1020.2
20260506133649 53 270 0.0 1.7 0.00 0.00 0.00 86 1020.1
20260506133146 52 318 0.0 0.0 0.00 0.00 0.00 86 1020.0
20260506132643 52 290 0.0 0.0 0.00 0.00 0.00 86 1019.9
20260506132140 52 332 0.0 1.7 0.00 0.00 0.00 86 1020.2
20260506131638 52 242 0.9 1.7 0.00 0.00 0.00 86 1020.1
20260506131133 52 302 1.7 1.7 0.00 0.00 0.00 86 1020.1
20260506130630 52 12 0.0 0.9 0.00 0.00 0.00 87 1020.1
20260506130128 52 349 0.0 0.9 0.00 0.00 0.00 87 1019.8
20260506125626 52 278 1.7 1.7 0.00 0.00 0.00 87 1019.9
20260506125123 52 306 0.0 2.6 0.00 0.00 0.00 87 1019.8
20260506124621 52 288 0.0 0.9 0.00 0.00 0.00 87 1020.1
20260506124119 52 282 0.0 0.9 0.00 0.00 0.00 87 1019.8
20260506123616 52 5 0.0 0.0 0.00 0.00 0.00 87 1019.9
20260506123115 52 336 0.0 1.7 0.00 0.00 0.00 87 1020.1
20260506122611 52 282 0.0 3.5 0.00 0.00 0.00 87 1019.9
20260506122109 52 267 1.7 2.6 0.00 0.00 0.00 87 1019.6
20260506121606 52 302 0.0 2.6 0.00 0.00 0.00 87 1019.7
20260506121102 52 261 0.0 2.6 0.00 0.00 0.00 87 1019.6
20260506120601 52 12 0.0 2.6 0.00 0.00 0.00 87 1019.6
20260506120058 52 282 0.0 1.7 0.00 0.00 0.00 87 1019.6
20260506115556 52 279 2.6 3.5 0.00 0.00 0.00 87 1019.9
20260506115054 52 318 0.0 2.6 0.00 0.00 0.00 87 1019.8
20260506114551 53 12 0.0 1.7 0.00 0.00 0.00 87 1019.5
20260506114049 53 282 1.7 1.7 0.00 0.00 0.00 86 1019.7
20260506113547 53 291 0.0 1.7 0.00 0.00 0.00 86 1019.6
20260506113044 53 282 0.0 1.7 0.00 0.00 0.00 86 1019.7
20260506112540 53 306 0.0 2.6 0.00 0.00 0.00 86 1019.7
20260506112038 53 290 0.0 1.7 0.00 0.00 0.00 86 1019.6
20260506111535 53 282 0.0 3.5 0.00 0.00 0.00 86 1019.8
20260506111032 53 17 0.0 1.7 0.00 0.00 0.00 86 1019.7
20260506110530 53 337 0.0 1.7 0.00 0.00 0.00 86 1019.6
20260506110027 53 260 0.0 1.7 0.00 0.00 0.00 86 1019.5
20260506105523 53 290 0.0 2.6 0.00 0.00 0.00 85 1019.5
20260506105021 53 6 0.0 1.7 0.00 0.00 0.00 85 1019.3
20260506104519 53 227 0.0 1.7 0.00 0.00 0.00 85 1019.2
20260506104017 53 282 0.9 0.9 0.00 0.00 0.00 85 1019.1
20260506103513 53 309 0.0 0.9 0.00 0.00 0.00 85 1019.0
20260506103010 53 12 0.0 1.7 0.00 0.00 0.00 85 1019.2
20260506102509 53 267 0.0 1.7 0.00 0.00 0.00 85 1019.2
20260506102005 53 332 0.0 1.7 0.00 0.00 0.00 84 1019.1
20260506101501 53 318 0.0 2.6 0.00 0.00 0.00 84 1019.2
20260506100959 53 303 0.9 2.6 0.00 0.00 0.00 84 1019.1
20260506100457 53 298 1.7 1.7 0.00 0.00 0.00 84 1019.2
20260506095955 53 315 0.0 1.7 0.00 0.00 0.00 84 1019.3
20260506095453 53 340 0.0 1.7 0.00 0.00 0.00 84 1019.3
20260506094949 53 340 0.9 1.7 0.00 0.00 0.00 84 1019.4
20260506094448 53 307 1.7 2.6 0.00 0.00 0.00 84 1019.4
20260506093945 53 306 0.9 2.6 0.00 0.00 0.00 83 1019.0
20260506093443 53 299 0.0 2.6 0.00 0.00 0.00 83 1018.9
20260506092940 53 7 0.9 1.7 0.00 0.00 0.00 83 1019.0
20260506092438 53 304 0.0 1.7 0.00 0.00 0.00 83 1019.2
20260506091934 53 294 0.9 1.7 0.00 0.00 0.00 83 1019.2
20260506091433 53 19 0.0 1.7 0.00 0.00 0.00 83 1019.0
20260506090930 53 340 0.0 1.7 0.00 0.00 0.00 83 1018.9
20260506090427 53 286 0.0 2.6 0.00 0.00 0.00 83 1018.9
20260506085924 53 335 0.0 1.7 0.00 0.00 0.00 83 1018.7
20260506085420 53 306 0.9 2.6 0.00 0.00 0.00 83 1018.8
20260506084917 53 349 0.0 1.7 0.00 0.00 0.00 83 1018.6
20260506084414 54 282 2.6 2.6 0.00 0.00 0.00 82 1018.7
20260506083910 54 295 0.0 4.3 0.00 0.00 0.00 83 1018.9
20260506083407 54 318 0.0 1.7 0.00 0.00 0.00 82 1018.8
20260506082905 54 5 0.0 1.7 0.00 0.00 0.00 82 1018.8
20260506082401 54 327 1.7 1.7 0.00 0.00 0.00 82 1018.7
20260506081857 54 353 1.7 1.7 0.00 0.00 0.00 82 1018.6
20260506081355 54 309 0.0 1.7 0.00 0.00 0.00 82 1018.7
20260506080853 54 309 0.9 1.7 0.00 0.00 0.00 82 1018.6
20260506080349 54 304 1.7 2.6 0.00 0.00 0.00 82 1018.6
20260506073333 54 349 0.0 1.7 0.00 0.00 0.00 82 1018.3
20260506072830 54 319 0.0 1.7 0.00 0.00 0.00 82 1018.1
20260506072328 54 269 2.6 4.3 0.00 0.00 0.00 82 1018.2
20260506071826 54 339 1.7 3.5 0.00 0.00 0.00 82 1018.1
20260506071323 54 287 0.0 2.6 0.00 0.00 0.00 82 1018.1
20260506070820 54 316 1.7 2.6 0.00 0.00 0.00 82 1018.2
20260506070317 54 282 0.0 2.6 0.00 0.00 0.00 81 1018.0
20260506062254 54 38 0.0 3.5 0.00 0.00 0.00 81 1017.9
20260506061750 54 12 0.0 1.7 0.00 0.00 0.00 81 1018.1
20260506061247 54 312 0.0 2.6 0.00 0.00 0.00 81 1017.7
20260506060746 54 306 0.9 3.5 0.00 0.00 0.00 81 1018.1
20260506060243 54 305 2.6 2.6 0.00 0.00 0.00 81 1018.0
20260506051215 55 290 0.9 3.5 0.00 0.00 0.00 79 1018.0
20260506050713 55 306 0.0 2.6 0.00 0.00 0.00 79 1018.1
20260506050210 55 287 0.0 1.7 0.00 0.00 0.00 79 1017.8
20260506044701 55 265 3.5 3.5 0.00 0.00 0.00 78 1017.7
20260506044157 55 288 0.0 3.5 0.00 0.00 0.00 78 1018.0
20260506043655 55 293 2.6 4.3 0.00 0.00 0.00 78 1017.8
20260506043153 55 270 0.0 3.5 0.00 0.00 0.00 78 1017.7
20260506042652 55 262 0.0 3.5 0.00 0.00 0.00 78 1017.5
20260506042149 55 279 2.6 5.2 0.00 0.00 0.00 77 1017.7
20260506041648 56 287 1.7 4.3 0.00 0.00 0.00 77 1017.6
20260506041144 56 272 1.7 4.3 0.00 0.00 0.00 77 1017.6
20260506040642 56 277 0.0 4.3 0.00 0.00 0.00 77 1017.3
20260506040138 56 277 0.0 1.7 0.00 0.00 0.00 77 1017.3
20260506035635 56 282 0.9 1.7 0.00 0.00 0.00 77 1017.2
20260506035132 56 312 0.0 4.3 0.00 0.00 0.00 77 1017.5
20260506034629 56 303 0.0 4.3 0.00 0.00 0.00 77 1017.2
20260506034126 56 272 1.7 1.7 0.00 0.00 0.00 77 1017.1
20260506033623 56 276 0.9 2.6 0.00 0.00 0.00 76 1017.3
20260506033120 56 324 0.0 2.6 0.00 0.00 0.00 76 1017.1
20260506032617 57 262 1.7 3.5 0.00 0.00 0.00 76 1016.7
20260506032114 57 270 0.0 4.3 0.00 0.00 0.00 76 1017.0
20260506031611 57 282 0.0 3.5 0.00 0.00 0.00 76 1017.0
20260506031108 57 288 0.0 1.7 0.00 0.00 0.00 76 1017.0
20260506030607 57 289 2.6 3.5 0.00 0.00 0.00 76 1016.9
20260506030104 57 282 0.0 3.5 0.00 0.00 0.00 75 1016.8
20260506025600 57 282 1.7 2.6 0.00 0.00 0.00 75 1016.9
20260506025056 58 287 1.7 2.6 0.00 0.00 0.00 75 1016.9
20260506024554 58 274 1.7 3.5 0.00 0.00 0.00 75 1016.8
20260506024050 58 274 0.9 3.5 0.00 0.00 0.00 75 1016.7
20260506023546 58 299 0.0 4.3 0.00 0.00 0.00 74 1016.6
20260506023043 58 297 0.0 2.6 0.00 0.00 0.00 75 1016.7
20260506022540 58 261 0.0 3.5 0.00 0.00 0.00 75 1016.6
20260506022033 58 290 0.0 1.7 0.00 0.00 0.00 75 1016.8
20260506021530 58 267 0.0 0.9 0.00 0.00 0.00 74 1017.0
20260506021027 58 252 1.7 3.5 0.00 0.00 0.00 74 1016.6
20260506020525 59 258 0.9 3.5 0.00 0.00 0.00 74 1016.7
20260506020022 59 282 0.0 3.5 0.00 0.00 0.00 74 1016.7
20260506015519 59 267 1.7 4.3 0.00 0.00 0.00 73 1016.9
20260506015016 59 251 1.7 4.3 0.00 0.00 0.00 73 1016.8
20260506014513 60 295 0.0 1.7 0.00 0.00 0.00 73 1016.9
20260506014009 60 286 0.0 3.5 0.00 0.00 0.00 73 1016.7
20260506013507 60 84 2.6 3.5 0.00 0.00 0.00 72 1016.4
20260506013004 61 246 0.9 2.6 0.00 0.00 0.00 71 1016.5
20260506012459 61 269 1.7 4.3 0.00 0.00 0.00 71 1016.7
20260506011957 62 250 1.7 5.2 0.00 0.00 0.00 70 1016.7
20260506011454 62 253 2.6 4.3 0.00 0.00 0.00 71 1016.5
20260506010950 62 276 0.0 1.7 0.00 0.00 0.00 70 1016.6
20260506010450 62 180 0.0 3.5 0.00 0.00 0.00 70 1016.4
20260506005945 62 249 2.6 3.5 0.00 0.00 0.00 70 1016.6
20260506005443 62 255 0.0 2.6 0.00 0.00 0.00 69 1016.5
20260506004938 63 227 0.0 3.5 0.00 0.00 0.00 68 1016.5
20260506004436 63 6 0.0 1.7 0.00 0.00 0.00 68 1016.5
20260506003932 64 224 0.9 4.3 0.00 0.00 0.00 68 1016.6
20260506003429 64 343 0.0 4.3 0.00 0.00 0.00 67 1016.4
20260506002926 64 267 0.0 1.7 0.00 0.00 0.00 66 1016.5
20260506002421 64 202 0.0 1.7 0.00 0.00 0.00 67 1016.6
20260506001917 64 66 0.0 3.5 0.00 0.00 0.00 67 1016.6
20260506001415 64 265 2.6 4.3 0.00 0.00 0.00 67 1016.8
20260506000912 64 6 0.0 4.3 0.00 0.00 0.00 65 1016.5
20260506000409 65 291 1.7 2.6 0.00 0.00 0.00 67 1016.8
20260505235906 64 72 0.0 1.7 0.00 0.00 0.00 67 1016.7
20260505235404 64 216 1.7 5.2 0.00 0.00 0.00 67 1016.8
20260505234900 64 323 0.9 2.6 0.00 0.00 0.00 66 1016.6
20260505234358 64 222 2.6 4.3 0.00 0.00 0.00 68 1016.8
20260505233854 64 253 2.6 3.5 0.00 0.00 0.00 68 1016.8
20260505233352 64 211 1.7 5.2 0.00 0.00 0.00 67 1016.8